Regional Weather Roundup
Issued by NWS

Home | Current Version | Previous Version | Text Only | Print | Product List | Glossary On
Versions: 1 2 3 4 5 6 7 8 9 10 11 12 13 14 15 16 17 18 19 20 21 22 23 24 25 26 27 28 29 30 31 32 33 34 35 36 37 38 39 40 41 42 43 44 45 46 47 48 49 50
000
ASMX46 KSGX 241211
RWRMX

MEXICAN WEATHER ROUNDUP
NATIONAL WEATHER SERVICE SAN DIEGO CA
500 AM PDT MON APR 24 2017

BAJA CALIFORNIA

CITY           SKY/WX    TMP DP  RH WIND       PRES   REMARKS
ENSENADA NW      N/A     60  32  35 W1        29.90R
LA PAZ         CLEAR     57  54  88 S10       29.87
S.J. DEL CABO  CLEAR     66  30  26 NW6       29.83
TIJUANA        MOCLDY    59  50  72 SE3       29.90

NORTHWESTERN MEXICO

CITY           SKY/WX    TMP DP  RH WIND       PRES   REMARKS
CHIHUAHUA      PTCLDY    64  39  39 SW3       30.00
CULIACAN       CLEAR     73  68  83 CALM      29.84
HERMOSILLO     CLEAR     72  43  35 E3        29.82
JUAREZ         MOCLDY    66  41  39 SW8       29.83

NORTHEASTERN MEXICO

CITY           SKY/WX    TMP DP  RH WIND       PRES   REMARKS
MATAMOROS      CLEAR     57  52  82 CALM      29.96
MONCLOVA       PTCLDY    63  45  51 S6        29.94
MONTERREY      PTCLDY    55  48  76 N5        29.96F
NUEVO LAREDO   CLEAR     57  48  72 CALM      29.94
REYNOSA        PTCLDY    55  50  82 SW3       29.96
SALTILLO       CLEAR     55  48  76 CALM      30.11R
VICTORIA       MOCLDY    59  59 100 SW2       29.99

WESTERN MEXICO

CITY           SKY/WX    TMP DP  RH WIND       PRES   REMARKS
AGUASCALIENTES MOCLDY    61  46  59 N14       30.20
COLIMA         PTCLDY    70  55  60 CALM      29.97
GUADALAJARA    PTCLDY    63  48  59 W5        30.13
MAZATLAN       CLOUDY    72  68  88 CALM      29.85S
PTO. VALLARTA  MOCLDY    72  70  94 CALM      29.84S
TEPIC            N/A    N/A N/A N/A MISG        N/A
URUAPAN        CLEAR     54  45  71 CALM      30.14
ZACATECAS      CLEAR     48  37  66 CALM      30.24

CENTRAL MEXICO

CITY           SKY/WX    TMP DP  RH WIND       PRES   REMARKS
CUERNAVACA     PTCLDY    64  50  59 CALM      30.08
LEON           PTCLDY    59  45  58 CALM      30.23R
MEXICO CITY    CLEAR     54  45  71 E8        30.27R
MORELIA        CLEAR     48  41  76 CALM      30.19
POZA RICA      CLOUDY    72  72 100 SW5       30.02
QUERETARO      CLEAR     50  48  93 CALM      30.25R
S. LUIS POTOSI MOCLDY    54  52  94 CALM      30.18
TAMPICO        MOCLDY    68  63  83 CALM      29.97R
TOLUCA         CLEAR     41  39  93 CALM      30.35
VERACRUZ       CLEAR     72  68  88 NW3       29.96R

SOUTHERN MEXICO

CITY           SKY/WX    TMP DP  RH WIND       PRES   REMARKS
ACAPULCO       PTCLDY    72  68  88 NW3       29.84S
B. DE HUATULCO   N/A    N/A N/A N/A MISG        N/A
MINATITLAN     PTCLDY    72  68  88 CALM      29.94
OAXACA         MOCLDY    54  50  87 CALM      30.20R
PTO. ESCONDIDO CLEAR     73  64  73 NE9       29.96R
TAPACHULA      PTCLDY    75  73  94 CALM      29.82R
TUX. GUTIERREZ MOCLDY    66  59  77 W5        29.98R
VILLAHERMOSA   PTCLDY    68  68 100 CALM      29.97R FOG
ZIHUATANEJO    PTCLDY    68  63  83 NE3       29.87

YUCATAN PENINSULA

CITY           SKY/WX    TMP DP  RH WIND       PRES   REMARKS
CAMPECHE       PTCLDY    72  70  94 CALM      29.91R
CANCUN         CLEAR     63  63 100 CALM      29.91R
CHETUMAL       MOCLDY    70  68  94 CALM      29.92
C. DEL CARMEN  PTCLDY    79  68  69 N9        29.93
COZUMEL        PTCLDY    73  68  83 N5        29.89R
MERIDA         PTCLDY    66  64  94 S5        29.93R

$$





USA.gov is the U.S. government's official web portal to all federal, state and local government web resources and services.